When you browse on this site, cookies collect data to enhance your experience and personalize the content and advertising you see.
Visit our Privacy Policy to learn more. By continuing to use the site, you agree to this use of cookies and data.
  • In Slovakia
  • List of Countries
  • For 7 days
  • Water Temperature
  • Weather Map
  • Weather Widgets
  • user-avatar
    Login

    Hourly Weather Kalat

    Today, 22 September, Sunday

    Time Temperature Precipitation Wind Pressure Humidity
    00:00 +6°C° 0 mm 0 mps 479 mmHg 37%
    01:00 +5°C° 0 mm 0 mps 478 mmHg 38%
    02:00 +4°C° 0 mm 0 mps 478 mmHg 38%
    03:00 +4°C° 0 mm 0 mps 478 mmHg 35%
    04:00 +4°C° 0 mm 0 mps 477 mmHg 33%
    05:00 +3°C° 0 mm 0 mps 477 mmHg 32%
    06:00 +5°C° 0 mm 0 mps 479 mmHg 26%
    07:00 +8°C° 0 mm 1 mps 480 mmHg 21%
    08:00 +10°C° 0 mm 1 mps 482 mmHg 16%
    09:00 +11°C° 0 mm 1 mps 483 mmHg 13%
    10:00 +13°C° 0 mm 1 mps 483 mmHg 11%
    11:00 +14°C° 0 mm 1 mps 484 mmHg 9%
    12:00 +15°C° 0 mm 1 mps 485 mmHg 8%
    13:00 +16°C° 0 mm 2 mps 485 mmHg 7%
    14:00 +16°C° 0 mm 2 mps 485 mmHg 6%
    15:00 +16°C° 0 mm 3 mps 485 mmHg 8%
    16:00 +15°C° 0 mm 4 mps 485 mmHg 9%
    17:00 +15°C° 0 mm 4 mps 485 mmHg 10%
    18:00 +13°C° 0 mm 4 mps 484 mmHg 15%
    19:00 +12°C° 0 mm 3 mps 484 mmHg 20%
    20:00 +10°C° 0 mm 3 mps 483 mmHg 24%
    21:00 +9°C° 0 mm 2 mps 483 mmHg 27%
    22:00 +8°C° 0 mm 2 mps 482 mmHg 29%
    23:00 +7°C° 0 mm 2 mps 482 mmHg 31%

    Tomorrow, 23 September, Monday

    Time Temperature Precipitation Wind Pressure Humidity
    00:00 +7°C° 0 mm 2 mps 482 mmHg 33%
    01:00 +6°C° 0 mm 2 mps 481 mmHg 34%
    02:00 +5°C° 0 mm 2 mps 480 mmHg 36%
    03:00 +5°C° 0 mm 1 mps 480 mmHg 36%
    04:00 +5°C° 0 mm 1 mps 480 mmHg 36%
    05:00 +4°C° 0 mm 1 mps 480 mmHg 37%
    06:00 +5°C° 0 mm 1 mps 480 mmHg 32%
    07:00 +6°C° 0 mm 1 mps 481 mmHg 28%
    08:00 +7°C° 0 mm 1 mps 482 mmHg 24%
    09:00 +8°C° 0 mm 1 mps 483 mmHg 21%
    10:00 +10°C° 0 mm 1 mps 484 mmHg 18%
    11:00 +11°C° 0 mm 1 mps 485 mmHg 15%
    12:00 +13°C° 0 mm 1 mps 485 mmHg 14%
    13:00 +14°C° 0 mm 1 mps 485 mmHg 12%
    14:00 +15°C° 0 mm 2 mps 486 mmHg 11%
    15:00 +15°C° 0 mm 2 mps 486 mmHg 12%
    16:00 +15°C° 0 mm 2 mps 485 mmHg 13%
    17:00 +14°C° 0 mm 3 mps 485 mmHg 13%
    18:00 +14°C° 0 mm 2 mps 485 mmHg 18%
    19:00 +12°C° 0 mm 2 mps 484 mmHg 23%
    20:00 +11°C° 0 mm 1 mps 483 mmHg 28%
    21:00 +10°C° 0 mm 1 mps 483 mmHg 30%
    22:00 +9°C° 0 mm 1 mps 482 mmHg 32%
    23:00 +7°C° 0 mm 0 mps 482 mmHg 34%

    Day after tomorrow, 24 September, Tuesday

    Time Temperature Precipitation Wind Pressure Humidity
    00:00 +7°C° 0 mm 0 mps 481 mmHg 34%
    01:00 +6°C° 0 mm 0 mps 481 mmHg 33%
    02:00 +6°C° 0 mm 0 mps 480 mmHg 32%
    03:00 +5°C° 0 mm 0 mps 480 mmHg 31%
    04:00 +5°C° 0 mm 0 mps 479 mmHg 29%
    05:00 +4°C° 0 mm 0 mps 479 mmHg 27%
    06:00 +6°C° 0 mm 0 mps 480 mmHg 23%
    07:00 +8°C° 0 mm 0 mps 482 mmHg 18%
    08:00 +10°C° 0 mm 0 mps 484 mmHg 14%
    09:00 +12°C° 0 mm 1 mps 484 mmHg 13%
    10:00 +13°C° 0 mm 1 mps 485 mmHg 11%
    11:00 +15°C° 0 mm 1 mps 486 mmHg 10%
    12:00 +15°C° 0 mm 1 mps 486 mmHg 9%
    13:00 +16°C° 0 mm 2 mps 486 mmHg 8%
    14:00 +17°C° 0 mm 2 mps 486 mmHg 8%
    15:00 +17°C° 0 mm 3 mps 486 mmHg 10%
    16:00 +16°C° 0 mm 3 mps 486 mmHg 11%
    17:00 +15°C° 0 mm 4 mps 486 mmHg 13%
    18:00 +14°C° 0 mm 4 mps 485 mmHg 19%
    19:00 +12°C° 0 mm 3 mps 484 mmHg 25%
    20:00 +10°C° 0 mm 2 mps 484 mmHg 30%
    21:00 +10°C° 0 mm 2 mps 483 mmHg 33%
    22:00 +10°C° 0 mm 1 mps 483 mmHg 36%
    23:00 +9°C° 0 mm 1 mps 482 mmHg 39%

    25 September, Wednesday

    Time Temperature Precipitation Wind Pressure Humidity
    00:00 +8°C° 0 mm 1 mps 481 mmHg 40%
    01:00 +7°C° 0 mm 1 mps 481 mmHg 41%
    02:00 +6°C° 0 mm 0 mps 480 mmHg 42%
    03:00 +5°C° 0 mm 0 mps 480 mmHg 42%
    04:00 +4°C° 0 mm 0 mps 479 mmHg 43%
    05:00 +4°C° 0 mm 0 mps 479 mmHg 43%
    06:00 +5°C° 0 mm 0 mps 480 mmHg 37%
    07:00 +7°C° 0 mm 0 mps 482 mmHg 31%
    08:00 +8°C° 0 mm 0 mps 483 mmHg 26%
    09:00 +10°C° 0 mm 0 mps 484 mmHg 22%
    10:00 +12°C° 0 mm 1 mps 485 mmHg 18%
    11:00 +13°C° 0 mm 1 mps 486 mmHg 14%
    12:00 +14°C° 0 mm 1 mps 486 mmHg 13%
    13:00 +15°C° 0 mm 1 mps 486 mmHg 11%
    14:00 +16°C° 0 mm 2 mps 487 mmHg 10%
    15:00 +16°C° 0 mm 2 mps 486 mmHg 11%
    16:00 +16°C° 0 mm 3 mps 486 mmHg 12%
    17:00 +15°C° 0 mm 4 mps 486 mmHg 13%
    18:00 +13°C° 0 mm 3 mps 486 mmHg 18%
    19:00 +12°C° 0 mm 3 mps 485 mmHg 23%
    20:00 +12°C° 0 mm 2 mps 484 mmHg 29%
    21:00 +10°C° 0 mm 2 mps 484 mmHg 31%
    22:00 +10°C° 0 mm 1 mps 483 mmHg 34%
    23:00 +9°C° 0 mm 1 mps 483 mmHg 36%

    26 September, Thursday

    Time Temperature Precipitation Wind Pressure Humidity
    00:00 +8°C° 0 mm 1 mps 482 mmHg 37%
    01:00 +8°C° 0 mm 1 mps 482 mmHg 38%
    02:00 +6°C° 0 mm 0 mps 481 mmHg 39%
    03:00 +6°C° 0 mm 0 mps 481 mmHg 38%
    04:00 +5°C° 0 mm 0 mps 481 mmHg 38%
    05:00 +5°C° 0 mm 0 mps 481 mmHg 38%
    06:00 +6°C° 0 mm 0 mps 482 mmHg 33%
    07:00 +7°C° 0 mm 0 mps 483 mmHg 28%
    08:00 +9°C° 0 mm 0 mps 484 mmHg 23%
    09:00 +11°C° 0 mm 1 mps 485 mmHg 21%
    10:00 +12°C° 0 mm 1 mps 486 mmHg 19%
    11:00 +13°C° 0 mm 1 mps 486 mmHg 16%
    12:00 +14°C° 0 mm 2 mps 486 mmHg 15%
    13:00 +15°C° 0 mm 2 mps 486 mmHg 13%
    14:00 +15°C° 0 mm 2 mps 486 mmHg 12%
    15:00 +14°C° 0 mm 3 mps 486 mmHg 13%
    16:00 +14°C° 0 mm 3 mps 486 mmHg 14%
    17:00 +14°C° 0 mm 4 mps 486 mmHg 15%
    18:00 +13°C° 0 mm 3 mps 485 mmHg 21%
    19:00 +11°C° 0 mm 3 mps 484 mmHg 26%
    20:00 +10°C° 0 mm 2 mps 484 mmHg 32%
    21:00 +9°C° 0 mm 2 mps 483 mmHg 35%
    22:00 +9°C° 0 mm 1 mps 483 mmHg 38%
    23:00 +9°C° 0 mm 1 mps 482 mmHg 42%

    27 September, Friday

    Time Temperature Precipitation Wind Pressure Humidity
    00:00 +8°C° 0 mm 1 mps 482 mmHg 43%
    01:00 +7°C° 0 mm 1 mps 481 mmHg 45%
    02:00 +5°C° 0 mm 0 mps 480 mmHg 47%
    03:00 +5°C° 0 mm 0 mps 480 mmHg 46%
    04:00 +5°C° 0 mm 1 mps 480 mmHg 46%
    05:00 +5°C° 0 mm 1 mps 479 mmHg 45%
    06:00 +6°C° 0 mm 1 mps 480 mmHg 39%
    07:00 +7°C° 0 mm 1 mps 481 mmHg 32%
    08:00 +9°C° 0 mm 1 mps 482 mmHg 26%
    09:00 +10°C° 0 mm 1 mps 483 mmHg 23%
    10:00 +10°C° 0 mm 2 mps 484 mmHg 19%
    11:00 +12°C° 0 mm 2 mps 485 mmHg 16%
    12:00 +12°C° 0 mm 3 mps 485 mmHg 16%
    13:00 +13°C° 0 mm 3 mps 485 mmHg 16%
    14:00 +13°C° 0 mm 4 mps 485 mmHg 15%
    15:00 +13°C° 0 mm 4 mps 485 mmHg 17%
    16:00 +13°C° 0 mm 4 mps 484 mmHg 19%
    17:00 +12°C° 0 mm 4 mps 484 mmHg 21%
    18:00 +11°C° 0 mm 4 mps 483 mmHg 26%
    19:00 +8°C° 0 mm 4 mps 482 mmHg 31%
    20:00 +7°C° 0 mm 4 mps 482 mmHg 36%
    21:00 +7°C° 0 mm 3 mps 481 mmHg 37%
    22:00 +5°C° 0 mm 3 mps 481 mmHg 39%
    23:00 +6°C° 0 mm 2 mps 481 mmHg 41%
    Show more